Location: Donald C. Martin Observatory
(38.3885°N, 82.3916°W)
Time: 14:18:34
(UTC-05:00)

Cosmos 1484 Rocket - Visible Passes

Search period start: 01 March 2015 00:00
Search period end: 11 March 2015 01:00
Orbit: 512 x 570 km, 97.4° (Epoch: 28 February)

Date Brightness Start Highest point End Pass type
(mag) Time Alt. Az. Time Alt. Az. Time Alt. Az.
01 Mar 4.1 18:47:00 10° ESE 18:49:53 20° ENE 18:52:50 10° NNE visible
01 Mar 5.0 20:21:00 10° SSW 20:24:22 26° W 20:27:39 10° NW visible
02 Mar 4.6 20:13:46 10° SSW 20:17:19 31° W 20:20:48 10° NNW visible
03 Mar 4.2 20:06:35 10° SSW 20:10:17 38° W 20:13:55 10° NNW visible
04 Mar 3.8 19:59:28 10° S 20:03:15 47° W 20:07:00 10° NNW visible
05 Mar 3.4 19:52:21 10° S 19:56:13 58° W 20:00:02 10° NNW visible
06 Mar 3.0 19:45:18 10° S 19:49:12 72° W 19:53:03 10° NNW visible
07 Mar 2.7 19:38:16 10° SSE 19:42:10 89° WSW 19:46:02 10° NNW visible
08 Mar 2.6 20:31:17 10° SSE 20:35:09 74° ENE 20:38:59 10° N visible
09 Mar 2.7 20:24:19 10° SSE 20:28:08 59° ENE 20:31:54 10° N visible
10 Mar 3.0 20:17:23 10° SSE 20:21:06 48° ENE 20:24:48 10° N visible
10 Mar 6.2 21:55:24 10° W 21:56:02 10° W 21:56:26 10° W visible
